[[{"header":{"parameterUnit":"m.s-1","parameterCategory":1,"la1":30.2991,"la2":30.254,"lo1":-89.0895,"lo2":-89.0444,"dy":0.0017,"dx":0.0017,"nx":28,"ny":28,"refTime":"2023-11-06T09:00:00:Z","depth":0,"parameterNumber":2,"parameterNumberName":"U-component_of_WINDS"},"data":[0,0,0,0,0,0,0,0,0,0,0,0,0,0,0,0,0,0,0,0,0,0,0,0,0,0,0,0,0,0,0,0,0,0,0,0,0,0,0,0,0,0,0,0,0,0,0,0,0,0,0,0,0,0,0,0,0,0,-0.7397,-0.7397,0,-0.7383,-0.7382,-0.7382,-0.7348,-0.7348,-0.7347,-0.7346,-0.7333,-0.7333,-0.7333,0,0,0,0,0,0,0,0,0,0,0,0,0,-0.7396,-0.7396,-0.7397,-0.7397,-0.7397,-0.7383,-0.7382,-0.7382,-0.7349,-0.7348,-0.7347,-0.7346,-0.7333,-0.7333,-0.7333,0,0,0,0,0,0,0,0,0,0,0,0,0,-0.7391,-0.7396,-0.7397,-0.7378,-0.7376,-0.7383,-0.7382,-0.7382,-0.7349,-0.7348,-0.7347,-0.7346,-0.7333,-0.7333,-0.7333,-0.7357,0,0,-0.7335,-0.7335,0,0,0,0,0,0,0,0,-0.7391,-0.7391,-0.7381,-0.7379,-0.7377,-0.7366,-0.7377,-0.7374,-0.7349,-0.7359,-0.7346,-0.7345,-0.7345,-0.7344,-0.7344,-0.7357,-0.7356,-0.7335,-0.7335,-0.7335,-0.7335,0,0,0,0,0,0,0,-0.7392,-0.7391,-0.7391,-0.7381,-0.7379,-0.7371,-0.7369,-0.7376,-0.7358,-0.7358,-0.7356,-0.7354,-0.7344,-0.7344,-0.7343,-0.7356,-0.7335,-0.7335,-0.7336,-0.7336,-0.7388,-0.7389,0,0,0,0,0,0,-0.7394,-0.7392,-0.7392,-0.7391,-0.7382,-0.7372,-0.7369,-0.7371,-0.7358,-0.7355,-0.7355,-0.7353,-0.7343,-0.7343,-0.7343,-0.737,-0.7335,-0.7336,-0.7336,-0.7387,-0.7388,-0.7389,0,0,0,0,0,0,-0.7395,-0.7395,-0.7392,-0.7391,-0.739,-0.7373,-0.7375,-0.7371,-0.7371,-0.7356,-0.7353,-0.7359,-0.7342,-0.7342,-0.7354,-0.7369,-0.7336,-0.7336,-0.7386,-0.7387,-0.7389,-0.7425,0,0,0,0,0,0,-0.7395,-0.7395,-0.7404,-0.7391,-0.739,-0.7404,-0.7376,-0.7372,-0.7372,-0.7368,-0.7358,-0.7355,-0.7342,-0.7353,-0.7354,-0.7369,-0.7337,-0.7384,-0.7386,-0.7388,-0.7422,-0.7427,-0.7432,0,0,0,0,0,-0.7395,-0.7415,-0.7404,-0.7405,-0.74,-0.7404,-0.7404,-0.7387,-0.7373,-0.7382,-0.7372,-0.7356,-0.7367,-0.7355,-0.7356,-0.7371,-0.7383,-0.7386,-0.7388,-0.742,-0.7426,-0.7432,0,0,0,0,0,0,-0.743,-0.7413,-0.7401,-0.7417,-0.7413,-0.7399,-0.7409,-0.7395,-0.7394,-0.7391,-0.7371,-0.7369,-0.7384,-0.7379,-0.7365,-0.7393,-0.7373,-0.7375,-0.7396,-0.7402,-0.7407,-0.7408,-0.7337,0,0,0,0,0,-0.7439,-0.7444,-0.7429,-0.7444,-0.7443,-0.7426,-0.7428,-0.7415,-0.741,-0.7408,-0.7399,-0.7395,-0.7397,-0.74,-0.7401,-0.7421,-0.7418,-0.7432,-0.7437,-0.7441,-0.7443,-0.7454,-0.7459,-0.7398,-0.7398,-0.7398,0,0,-0.7459,-0.745,-0.7454,-0.7451,-0.7446,-0.7451,-0.7425,-0.7432,-0.7436,-0.7409,-0.742,-0.7413,-0.7407,-0.7423,-0.743,-0.7419,-0.746,-0.7444,-0.7447,-0.7448,-0.7457,-0.7463,-0.7468,-0.7399,-0.7399,-0.7399,0,0,-0.7498,-0.7492,-0.7504,-0.7499,-0.7492,-0.7481,-0.7484,-0.7473,-0.7467,-0.7477,-0.7458,-0.7462,-0.7467,-0.7464,-0.7462,-0.75,-0.7485,-0.7501,-0.7527,-0.7537,-0.7542,-0.7546,-0.756,-0.7565,-0.7504,-0.7504,-0.7504,0,-0.7524,-0.753,-0.7512,-0.752,-0.752,-0.7495,-0.7508,-0.7505,-0.7498,-0.7499,-0.7487,-0.7492,-0.7487,-0.7501,-0.7511,-0.7511,-0.7514,-0.7502,-0.7543,-0.7547,-0.755,-0.7563,-0.7568,-0.7506,-0.7506,-0.7506,-0.7506,0,-0.7562,-0.7568,-0.7579,-0.7573,-0.7573,-0.7584,-0.7567,-0.757,-0.7558,-0.7549,-0.756,-0.7552,-0.7551,-0.7554,-0.7542,-0.7567,-0.7561,-0.7546,-0.7525,-0.7559,-0.757,-0.7575,-0.7509,-0.7508,-0.7508,-0.7507,0,0,-0.7623,-0.7607,-0.7611,-0.7608,-0.7598,-0.7602,-0.7611,-0.7611,-0.7614,-0.761,-0.7618,-0.7623,-0.7609,-0.7608,-0.7595,-0.7604,-0.7635,-0.7588,-0.7588,-0.7597,-0.7662,-0.7673,-0.7679,-0.7625,-0.7626,-0.7626,-0.7662,0,-0.7659,-0.7674,-0.7658,-0.7676,-0.7681,-0.7658,-0.7666,-0.7661,-0.7653,-0.7656,-0.7646,-0.765,-0.7632,-0.7631,-0.7639,-0.7629,-0.7647,-0.7627,-0.7632,-0.7632,-0.7634,-0.7685,-0.7696,-0.7731,-0.7667,-0.7667,-0.7668,0,-0.7703,-0.7702,-0.772,-0.7709,-0.771,-0.7718,-0.7716,-0.7719,-0.7713,-0.7707,-0.7705,-0.7691,-0.7699,-0.7679,-0.7691,-0.7677,-0.7678,-0.7674,-0.7675,-0.7675,-0.7652,-0.7686,-0.7742,-0.7747,-0.7675,-0.7674,-0.7674,0,-0.7745,-0.7748,-0.7759,-0.7757,-0.7745,-0.7751,-0.7746,-0.7739,-0.7739,-0.7738,-0.7738,-0.7738,-0.7738,-0.7738,-0.7724,-0.771,-0.7738,-0.7716,-0.7733,-0.7733,-0.7739,-0.7739,-0.7796,-0.7741,-0.774,-0.774,-0.774,0,-0.7787,-0.78,-0.7778,-0.7785,-0.7798,-0.778,-0.7793,-0.7786,-0.778,-0.7786,-0.7766,-0.7772,-0.7753,-0.7756,-0.7745,-0.7757,-0.7757,-0.7752,-0.7749,-0.7754,-0.7754,-0.7754,-0.7751,-0.7742,-0.7741,-0.7741,-0.7741,0,-0.7837,-0.7822,-0.7833,-0.782,-0.7817,-0.7828,-0.7817,-0.7823,-0.7813,-0.7821,-0.7821,-0.7806,-0.781,-0.7795,-0.7796,-0.7789,-0.7806,-0.7799,-0.7808,-0.7806,-0.7823,-0.7822,-0.7882,-0.7889,-0.7829,-0.783,-0.783,0,-0.7864,-0.7873,-0.7861,-0.7863,-0.7859,-0.7863,-0.7863,-0.7846,-0.7847,-0.7841,-0.7848,-0.785,-0.785,-0.7857,-0.7846,-0.7847,-0.784,-0.7861,-0.784,-0.7845,-0.784,-0.784,-0.7841,-0.7865,-0.7866,-0.7867,-0.7867,0,-0.7915,-0.7908,-0.7909,-0.7908,-0.7909,-0.7907,-0.7904,-0.7907,-0.7888,-0.7891,-0.7894,-0.7894,-0.7895,-0.7897,-0.7896,-0.7891,-0.7876,-0.7874,-0.7878,-0.7883,-0.7887,-0.7885,-0.782,-0.7873,-0.7872,-0.7872,-0.7871,-0.7871,-0.7954,-0.7961,-0.7954,-0.7956,-0.7952,-0.7949,-0.7954,-0.7945,-0.7947,-0.7946,-0.7936,-0.7941,-0.7935,-0.7932,-0.7929,-0.7933,-0.7923,-0.7928,-0.793,-0.7931,-0.7934,-0.7887,-0.7932,-0.7932,-0.7932,-0.7932,-0.7932,0,-0.8004,-0.7998,-0.8,-0.7996,-0.7998,-0.7984,-0.798,-0.7982,-0.7987,-0.7982,-0.7983,-0.7987,-0.7989,-0.7978,-0.7979,-0.7984,-0.7977,-0.7985,-0.7984,-0.7983,-0.7943,-0.794,-0.799,-0.799,-0.799,-0.799,-0.799,-0.799,-0.803,-0.8041,-0.8032,-0.8041,-0.8035,-0.804,-0.8039,-0.8036,-0.8033,-0.8038,-0.8039,-0.8032,-0.8025,-0.8025,-0.8026,-0.8023,-0.8024,-0.8034,-0.8029,-0.7992,-0.7986,-0.7981,-0.7977,-0.8035,-0.8035,-0.8068,-0.8069,-0.8069]},{"header":{"parameterUnit":"m.s-1","parameterCategory":1,"la1":30.2991,"la2":30.254,"lo1":-89.0895,"lo2":-89.0444,"dy":0.0017,"dx":0.0017,"nx":28,"ny":28,"refTime":"2023-11-06T09:00:00:Z","depth":0,"parameterNumber":3,"parameterNumberName":"V-component_of_WINDS"},"data":[0,0,0,0,0,0,0,0,0,0,0,0,0,0,0,0,0,0,0,0,0,0,0,0,0,0,0,0,0,0,0,0,0,0,0,0,0,0,0,0,0,0,0,0,0,0,0,0,0,0,0,0,0,0,0,0,0,0,-0.0491,-0.0491,0,-0.0511,-0.0511,-0.0511,-0.0509,-0.0509,-0.0508,-0.0508,-0.053,-0.053,-0.0531,0,0,0,0,0,0,0,0,0,0,0,0,0,-0.0451,-0.0452,-0.0491,-0.0491,-0.0491,-0.0511,-0.0511,-0.0512,-0.0509,-0.0509,-0.0508,-0.0508,-0.0529,-0.053,-0.0531,0,0,0,0,0,0,0,0,0,0,0,0,0,-0.047,-0.0452,-0.0491,-0.0492,-0.0493,-0.0511,-0.0511,-0.0512,-0.0509,-0.0509,-0.0508,-0.0508,-0.0529,-0.053,-0.0532,-0.055,0,0,-0.0536,-0.0536,0,0,0,0,0,0,0,0,-0.0468,-0.0471,-0.0492,-0.0492,-0.0493,-0.0507,-0.0505,-0.0524,-0.0509,-0.0503,-0.0508,-0.0507,-0.0523,-0.0524,-0.0529,-0.0551,-0.0552,-0.0536,-0.0537,-0.0537,-0.0538,0,0,0,0,0,0,0,-0.0467,-0.047,-0.0499,-0.0492,-0.0493,-0.0492,-0.0494,-0.0509,-0.0515,-0.0503,-0.0503,-0.0506,-0.0523,-0.0528,-0.053,-0.0552,-0.0536,-0.0537,-0.0538,-0.0538,-0.0589,-0.059,0,0,0,0,0,0,-0.0465,-0.0469,-0.0498,-0.0499,-0.0479,-0.0494,-0.0496,-0.0503,-0.0515,-0.0517,-0.0506,-0.0505,-0.0526,-0.0528,-0.0531,-0.0552,-0.0537,-0.0538,-0.0539,-0.0589,-0.0589,-0.059,0,0,0,0,0,0,-0.0465,-0.0468,-0.0497,-0.0484,-0.0488,-0.0495,-0.0503,-0.0504,-0.0509,-0.0517,-0.0518,-0.051,-0.0526,-0.0529,-0.0545,-0.0553,-0.0539,-0.054,-0.0588,-0.0589,-0.0589,-0.0596,0,0,0,0,0,0,-0.0463,-0.0468,-0.0475,-0.0484,-0.0489,-0.0511,-0.0503,-0.0504,-0.0511,-0.051,-0.0521,-0.0523,-0.0526,-0.0543,-0.0546,-0.0555,-0.0541,-0.0587,-0.0588,-0.0589,-0.0595,-0.0597,-0.0599,0,0,0,0,0,-0.0462,-0.0476,-0.0475,-0.0478,-0.0497,-0.0512,-0.0514,-0.0517,-0.0512,-0.0519,-0.0524,-0.0522,-0.0552,-0.0545,-0.0548,-0.0557,-0.0587,-0.0588,-0.0589,-0.0595,-0.0597,-0.0599,0,0,0,0,0,0,-0.0467,-0.0477,-0.0476,-0.0494,-0.0502,-0.0511,-0.052,-0.0519,-0.0529,-0.0528,-0.0531,-0.0534,-0.055,-0.0555,-0.0547,-0.0575,-0.0568,-0.0571,-0.0571,-0.0574,-0.0575,-0.0574,-0.0542,0,0,0,0,0,-0.0471,-0.0481,-0.0489,-0.0504,-0.0508,-0.0513,-0.052,-0.0521,-0.053,-0.0533,-0.054,-0.0548,-0.056,-0.0567,-0.0578,-0.0596,-0.0598,-0.0604,-0.0606,-0.0607,-0.0609,-0.0619,-0.0622,-0.0594,-0.0594,-0.0594,0,0,-0.0478,-0.0484,-0.0491,-0.0505,-0.0512,-0.0523,-0.0516,-0.0529,-0.0537,-0.0535,-0.0551,-0.0556,-0.0566,-0.0583,-0.0591,-0.0588,-0.0617,-0.0609,-0.061,-0.0611,-0.0621,-0.0623,-0.0626,-0.0595,-0.0595,-0.0594,0,0,-0.0496,-0.0502,-0.0514,-0.0521,-0.053,-0.0534,-0.0537,-0.0546,-0.0549,-0.0565,-0.0564,-0.0574,-0.0593,-0.06,-0.0606,-0.0626,-0.0625,-0.063,-0.0639,-0.0649,-0.0651,-0.0653,-0.066,-0.0663,-0.0631,-0.0631,-0.0631,0,-0.0503,-0.0519,-0.0521,-0.0533,-0.054,-0.0538,-0.0551,-0.0558,-0.057,-0.0575,-0.0571,-0.0595,-0.0601,-0.062,-0.0625,-0.063,-0.0634,-0.0629,-0.065,-0.0652,-0.0654,-0.0661,-0.0664,-0.0632,-0.0632,-0.0632,-0.0632,0,-0.0528,-0.0539,-0.0549,-0.056,-0.0568,-0.058,-0.0584,-0.0592,-0.0592,-0.0596,-0.0612,-0.0619,-0.0632,-0.0636,-0.0637,-0.0655,-0.0653,-0.065,-0.0643,-0.0657,-0.0664,-0.0666,-0.0633,-0.0632,-0.0632,-0.0632,0,0,-0.0551,-0.0563,-0.0566,-0.0571,-0.0582,-0.0591,-0.0603,-0.0614,-0.0621,-0.0629,-0.064,-0.0656,-0.0653,-0.066,-0.0661,-0.067,-0.0685,-0.0665,-0.0666,-0.0669,-0.0705,-0.0708,-0.0711,-0.0684,-0.0685,-0.0685,-0.0705,0,-0.057,-0.0591,-0.0593,-0.0613,-0.0623,-0.0622,-0.0632,-0.064,-0.0644,-0.0653,-0.0658,-0.0669,-0.0664,-0.0668,-0.0676,-0.0681,-0.0692,-0.068,-0.0694,-0.0695,-0.0692,-0.0714,-0.0717,-0.0735,-0.0707,-0.0708,-0.0708,0,-0.0595,-0.0604,-0.0624,-0.0633,-0.0637,-0.0647,-0.0657,-0.0666,-0.0675,-0.0677,-0.0684,-0.0685,-0.0697,-0.069,-0.0708,-0.0699,-0.0705,-0.0708,-0.0709,-0.0711,-0.0702,-0.0716,-0.0741,-0.0743,-0.0712,-0.0712,-0.0711,0,-0.0609,-0.0627,-0.0641,-0.0645,-0.0655,-0.0662,-0.0667,-0.0675,-0.0681,-0.0691,-0.0695,-0.0706,-0.0711,-0.072,-0.0723,-0.0717,-0.0741,-0.0733,-0.0743,-0.0743,-0.0748,-0.0748,-0.0774,-0.0752,-0.0752,-0.0752,-0.0752,0,-0.0631,-0.0643,-0.0647,-0.0656,-0.067,-0.0672,-0.0686,-0.069,-0.0697,-0.0707,-0.0706,-0.0716,-0.0719,-0.0729,-0.0732,-0.0746,-0.0749,-0.0751,-0.0752,-0.0751,-0.0751,-0.0755,-0.0754,-0.0753,-0.0752,-0.0752,-0.0752,0,-0.0649,-0.0653,-0.0668,-0.0676,-0.0678,-0.0688,-0.0695,-0.0704,-0.0707,-0.072,-0.0723,-0.0728,-0.074,-0.0743,-0.0758,-0.0759,-0.0776,-0.0776,-0.0773,-0.0773,-0.0782,-0.0782,-0.0812,-0.0816,-0.0792,-0.0792,-0.0792,0,-0.0663,-0.0672,-0.0681,-0.0687,-0.0692,-0.0702,-0.0709,-0.0711,-0.0718,-0.0728,-0.0735,-0.0747,-0.0756,-0.0774,-0.078,-0.079,-0.079,-0.08,-0.0792,-0.0791,-0.079,-0.079,-0.0791,-0.0802,-0.0802,-0.0802,-0.0802,0,-0.0686,-0.0687,-0.0696,-0.0706,-0.0714,-0.0722,-0.0729,-0.0735,-0.0738,-0.0746,-0.0757,-0.0764,-0.0778,-0.079,-0.08,-0.0805,-0.0805,-0.0805,-0.0808,-0.0807,-0.0805,-0.0807,-0.0777,-0.0804,-0.0804,-0.0804,-0.0804,-0.0804,-0.0703,-0.0711,-0.0718,-0.0728,-0.0734,-0.0741,-0.075,-0.0754,-0.0763,-0.0775,-0.0775,-0.0788,-0.0796,-0.081,-0.0816,-0.0825,-0.0823,-0.0827,-0.0828,-0.0829,-0.0829,-0.0804,-0.0827,-0.0827,-0.0827,-0.0827,-0.0827,0,-0.0726,-0.073,-0.074,-0.075,-0.0758,-0.0756,-0.0764,-0.0771,-0.0782,-0.0789,-0.0798,-0.0811,-0.0822,-0.0828,-0.0839,-0.0846,-0.0845,-0.0848,-0.0848,-0.0849,-0.0831,-0.0828,-0.0848,-0.0848,-0.0848,-0.0848,-0.0848,-0.0848,-0.0739,-0.0753,-0.0755,-0.0771,-0.0776,-0.0788,-0.0792,-0.0799,-0.0805,-0.0819,-0.0828,-0.0831,-0.0838,-0.0849,-0.0859,-0.0861,-0.0865,-0.0868,-0.0869,-0.0853,-0.085,-0.0848,-0.0845,-0.0869,-0.0869,-0.0886,-0.0886,-0.0887]}]]